Simultaneous Nadir Overpasses (SNOs) Predictions

Prediction of SNOs between NOAA-20 and AQUA Satellite Orbit:

Table of predicted SNOs for the next 14.0 days since TLE Epoch: 4/14/2023
Index Date (NOAA-20) Time (NOAA-20) Lat,Lon (NOAA-20) SZA (NOAA-20 ) Date (AQUA) Time (AQUA) Lat,Lon (AQUA) SZA (AQUA ) Distance(km) Time Diff (sec)
1 04/15/2023 21:40:22 80.10, 117.61 81.49 04/15/2023 21:41:21 80.10, 117.46 81.47 3.03 59
2 04/15/2023 22:31:03 -80.22, -73.72 98.78 04/15/2023 22:30:43 -80.22, -73.80 98.75 1.71 20
3 04/18/2023 12:15:50 80.07,-101.56 80.61 04/18/2023 12:16:48 80.07,-101.59 80.58 0.55 58
4 04/18/2023 13:06:31 -80.20, 67.12 99.65 04/18/2023 13:06:10 -80.20, 67.17 99.65 0.95 21
5 04/21/2023 02:51:17 80.07, 39.53 79.71 04/21/2023 02:52:13 80.07, 39.57 79.67 0.96 56
6 04/21/2023 03:41:58 -80.19,-151.79 100.55 04/21/2023 03:41:35 -80.20,-151.66 100.56 2.48 23
7 04/23/2023 17:26:44 80.06,-179.44 78.85 04/23/2023 17:27:37 80.06,-179.36 78.80 1.51 53
8 04/23/2023 18:17:24 -80.21, -10.44 101.48 04/23/2023 18:16:58 -80.22, -10.29 101.48 3.02 26
9 04/26/2023 08:02:08 80.10, -37.84 77.90 04/26/2023 08:02:57 80.10, -37.79 77.86 1.04 49
10 04/26/2023 08:52:49 -80.22, 130.86 102.37 04/26/2023 08:52:19 -80.23, 130.99 102.37 2.53 30



Historial Predications of SNOs between NOAA-20 and AQUA
